XNO232 DTNH-EGGD

Flight info

Callsign XNO232
Flight time 3h 1m
Altitude 34000
Route VAXAL1C VAXAL A411 TUC UA725 OSMAR DCT PIRIX DCT INDUM DCT UPDUT DCT CORSI DCT OMEDA DCT MERLU DCT PIGOS DCT BARSO DCT OKTET DCT GIPNO/N0453F360 DCT BULOL DCT IDAVO DCT BAGBI DCT SIZZA DCT LAULY DCT BRY DCT CLM DCT KOPOR DCT KESAX DCT KUNAV T421 ICTAM L179 SAWPE
Aircraft A320/M-SDE3FGHIRWY/LB1

Departure

Time 2026-04-21 09:46
Airport Enfidha - Hammamet International Airport (DTNH)

Arrival

Time 2026-04-21 12:48
Airport Bristol Airport (EGGD)
Time Latitude Longitude Altitude Speed Heading
2026-04-21 09:26 36.08238 10.44031 18 ft 0 kts 309°
2026-04-21 09:33 36.08228 10.44047 18 ft 2 kts 309°
2026-04-21 09:33 36.08217 10.44064 18 ft 2 kts 309°
2026-04-21 09:33 36.08206 10.44079 18 ft 2 kts 303°
2026-04-21 09:33 36.08198 10.44098 17 ft 2 kts 295°
2026-04-21 09:34 36.08195 10.44119 17 ft 2 kts 268°
2026-04-21 09:34 36.08199 10.44139 17 ft 2 kts 211°
2026-04-21 09:34 36.08204 10.44143 18 ft 0 kts 212°
2026-04-21 09:37 36.08198 10.44139 18 ft 4 kts 212°
2026-04-21 09:37 36.08164 10.44110 18 ft 6 kts 219°
2026-04-21 09:37 36.08134 10.44071 18 ft 7 kts 227°
2026-04-21 09:38 36.08102 10.44029 18 ft 7 kts 226°
2026-04-21 09:38 36.08068 10.43986 18 ft 7 kts 226°
2026-04-21 09:38 36.08045 10.43933 18 ft 7 kts 262°
2026-04-21 09:38 36.08044 10.43869 18 ft 9 kts 270°
2026-04-21 09:39 36.08044 10.43768 19 ft 12 kts 270°
2026-04-21 09:39 36.08044 10.43657 19 ft 14 kts 270°
2026-04-21 09:39 36.08045 10.43529 21 ft 17 kts 271°
2026-04-21 09:39 36.08046 10.43366 19 ft 20 kts 270°
2026-04-21 09:40 36.08047 10.43171 20 ft 24 kts 270°
2026-04-21 09:40 36.08047 10.42982 20 ft 18 kts 270°
2026-04-21 09:40 36.08048 10.42813 21 ft 19 kts 270°
2026-04-21 09:40 36.08034 10.42721 22 ft 10 kts 231°
2026-04-21 09:41 36.07972 10.42697 21 ft 10 kts 180°
2026-04-21 09:41 36.07904 10.42697 21 ft 10 kts 180°
2026-04-21 09:41 36.07835 10.42696 21 ft 10 kts 180°
2026-04-21 09:41 36.07769 10.42683 21 ft 10 kts 215°
2026-04-21 09:42 36.07751 10.42607 21 ft 11 kts 271°
2026-04-21 09:42 36.07752 10.42475 22 ft 17 kts 270°
2026-04-21 09:42 36.07753 10.42318 22 ft 20 kts 270°
2026-04-21 09:42 36.07753 10.42179 22 ft 14 kts 270°
2026-04-21 09:43 36.07749 10.42079 22 ft 10 kts 250°
2026-04-21 09:43 36.07702 10.42044 22 ft 4 kts 183°
2026-04-21 09:43 36.07699 10.42045 22 ft 0 kts 180°
2026-04-21 09:44 36.07697 10.42045 22 ft 1 kts 180°
2026-04-21 09:45 36.07651 10.42045 22 ft 9 kts 177°
2026-04-21 09:45 36.07597 10.42081 23 ft 9 kts 129°
2026-04-21 09:45 36.07585 10.42131 23 ft 1 kts 93°
2026-04-21 09:45 36.07585 10.42134 23 ft 0 kts 92°
2026-04-21 09:46 36.07582 10.42536 21 ft 101 kts 90°
2026-04-21 09:46 36.07576 10.43771 39 ft 179 kts 90°
2026-04-21 09:46 36.07562 10.45373 857 ft 193 kts 91°
2026-04-21 09:46 36.07724 10.47043 1904 ft 199 kts 65°
2026-04-21 09:47 36.08706 10.48297 2626 ft 218 kts 24°
2026-04-21 09:47 36.10281 10.48452 3212 ft 248 kts 345°
2026-04-21 09:47 36.11911 10.47562 4289 ft 260 kts 332°
2026-04-21 09:47 36.13513 10.46462 5425 ft 269 kts 332°
2026-04-21 09:48 36.15293 10.45687 6137 ft 277 kts 352°
2026-04-21 09:48 36.17205 10.45757 7520 ft 277 kts
2026-04-21 09:48 36.19095 10.46314 8810 ft 281 kts 16°
2026-04-21 09:48 36.20972 10.47047 10075 ft 285 kts 18°
2026-04-21 09:49 36.22870 10.47861 10819 ft 299 kts 15°
2026-04-21 09:49 36.24924 10.48685 11501 ft 322 kts 12°
2026-04-21 09:49 36.27194 10.49196 12101 ft 342 kts
2026-04-21 09:49 36.29636 10.49100 12629 ft 362 kts 349°
2026-04-21 09:50 36.32114 10.48302 13341 ft 372 kts 337°
2026-04-21 09:50 36.32928 10.47900 13661 ft 374 kts 335°
2026-04-21 09:50 36.39474 10.44666 16083 ft 385 kts 336°
2026-04-21 09:51 36.41991 10.43480 16981 ft 389 kts 336°
2026-04-21 09:51 36.44535 10.42294 17876 ft 392 kts 336°
2026-04-21 09:51 36.47104 10.41098 18653 ft 396 kts 336°
2026-04-21 09:51 36.49690 10.39893 19393 ft 399 kts 336°
2026-04-21 09:52 36.52303 10.38670 20134 ft 403 kts 336°
2026-04-21 09:52 36.54936 10.37432 20857 ft 407 kts 336°
2026-04-21 09:52 36.57595 10.36177 21542 ft 411 kts 336°
2026-04-21 09:52 36.60285 10.34906 22213 ft 415 kts 336°
2026-04-21 09:53 36.62998 10.33621 22843 ft 419 kts 336°
2026-04-21 09:53 36.65735 10.32322 23476 ft 423 kts 336°
2026-04-21 09:53 36.68494 10.31012 24006 ft 426 kts 336°
2026-04-21 09:53 36.71278 10.29693 24551 ft 430 kts 336°
2026-04-21 09:54 36.74082 10.28364 25085 ft 433 kts 336°
2026-04-21 09:54 36.76905 10.27028 25505 ft 435 kts 336°
2026-04-21 09:54 36.79738 10.25684 25865 ft 437 kts 336°
2026-04-21 09:54 36.82587 10.24328 26182 ft 439 kts 336°
2026-04-21 09:55 36.85469 10.23030 26448 ft 442 kts 341°
2026-04-21 09:55 36.88461 10.22079 26710 ft 445 kts 343°
2026-04-21 09:55 36.91473 10.21151 26973 ft 447 kts 343°
2026-04-21 09:55 36.94495 10.20214 27226 ft 448 kts 343°
2026-04-21 09:56 36.97531 10.19270 27463 ft 450 kts 343°
2026-04-21 09:56 37.00567 10.18327 27812 ft 450 kts 343°
2026-04-21 09:56 37.03602 10.17385 28201 ft 448 kts 343°
2026-04-21 09:56 37.06627 10.16445 28601 ft 447 kts 342°
2026-04-21 09:57 37.09643 10.15504 28986 ft 446 kts 342°
2026-04-21 09:57 37.12653 10.14564 29374 ft 445 kts 342°
2026-04-21 09:57 37.15615 10.13640 29767 ft 444 kts 342°
2026-04-21 09:57 37.18608 10.12703 30137 ft 443 kts 342°
2026-04-21 09:58 37.21593 10.11768 30464 ft 442 kts 342°
2026-04-21 09:58 37.24569 10.10835 30819 ft 440 kts 342°
2026-04-21 09:58 37.27533 10.09906 31182 ft 438 kts 342°
2026-04-21 09:58 37.30482 10.08981 31553 ft 436 kts 342°
2026-04-21 09:59 37.33420 10.08060 31904 ft 434 kts 342°
2026-04-21 09:59 37.36346 10.07142 32254 ft 433 kts 342°
2026-04-21 09:59 37.39264 10.06224 32589 ft 432 kts 342°
2026-04-21 09:59 37.42173 10.05311 32922 ft 430 kts 342°
2026-04-21 10:00 37.45075 10.04399 33252 ft 429 kts 342°
2026-04-21 10:00 37.47963 10.03486 33588 ft 427 kts 342°
2026-04-21 10:00 37.50845 10.02570 33907 ft 427 kts 342°
2026-04-21 10:00 37.53726 10.01654 33993 ft 428 kts 341°
2026-04-21 10:01 37.59516 9.99817 33986 ft 429 kts 342°
2026-04-21 10:01 37.65311 9.97977 33986 ft 430 kts 342°
2026-04-21 10:02 37.74007 9.95201 33986 ft 430 kts 341°
2026-04-21 10:03 37.79804 9.93351 34005 ft 429 kts 341°
2026-04-21 10:03 37.85598 9.91512 34000 ft 429 kts 341°
2026-04-21 10:04 37.91383 9.89673 33996 ft 428 kts 341°
2026-04-21 10:04 37.97163 9.87824 33992 ft 428 kts 341°
2026-04-21 10:05 38.02933 9.85968 33982 ft 428 kts 341°
2026-04-21 10:05 38.08703 9.84116 33974 ft 428 kts 341°
2026-04-21 10:06 38.14473 9.82260 33964 ft 428 kts 341°
2026-04-21 10:06 38.20246 9.80406 33966 ft 428 kts 341°
2026-04-21 10:07 38.26020 9.78547 33983 ft 428 kts 341°
2026-04-21 10:07 38.31803 9.76691 33978 ft 429 kts 341°
2026-04-21 10:08 38.37589 9.74835 33976 ft 429 kts 341°
2026-04-21 10:08 38.43374 9.72974 33975 ft 429 kts 341°
2026-04-21 10:09 38.49160 9.71122 33987 ft 429 kts 341°
2026-04-21 10:09 38.54945 9.69265 33975 ft 429 kts 341°
2026-04-21 10:10 38.60730 9.67398 33971 ft 429 kts 341°
2026-04-21 10:10 38.66518 9.65515 33967 ft 429 kts 341°
2026-04-21 10:11 38.72306 9.63627 33971 ft 429 kts 341°
2026-04-21 10:11 38.78101 9.61750 33984 ft 430 kts 341°
2026-04-21 10:12 38.83902 9.59876 33978 ft 429 kts 341°
2026-04-21 10:12 38.89656 9.58004 33976 ft 429 kts 341°
2026-04-21 10:13 38.95435 9.56072 33975 ft 429 kts 340°
2026-04-21 10:13 39.01201 9.54097 33986 ft 428 kts 340°
2026-04-21 10:14 39.06959 9.52116 33980 ft 428 kts 340°
2026-04-21 10:14 39.12713 9.50147 33972 ft 428 kts 340°
2026-04-21 10:15 39.18466 9.48190 33967 ft 428 kts 340°
2026-04-21 10:15 39.24225 9.46226 33976 ft 428 kts 340°
2026-04-21 10:16 39.29988 9.44254 33957 ft 428 kts 340°
2026-04-21 10:16 39.35754 9.42269 33959 ft 429 kts 340°
2026-04-21 10:17 39.41526 9.40282 33963 ft 429 kts 340°
2026-04-21 10:17 39.47298 9.38296 33977 ft 429 kts 340°
2026-04-21 10:18 39.53067 9.36307 33971 ft 429 kts 340°
2026-04-21 10:18 39.58839 9.34312 33973 ft 429 kts 340°
2026-04-21 10:19 39.64607 9.32318 33969 ft 429 kts 340°
2026-04-21 10:19 39.70368 9.30313 33987 ft 428 kts 340°
2026-04-21 10:20 39.76124 9.28304 33983 ft 428 kts 340°
2026-04-21 10:20 39.80906 9.26646 33976 ft 428 kts 340°
2026-04-21 10:21 39.87629 9.24309 33977 ft 428 kts 340°
2026-04-21 10:21 39.92410 9.22643 33996 ft 428 kts 340°
2026-04-21 10:22 39.98154 9.20633 33991 ft 427 kts 340°
2026-04-21 10:22 40.03891 9.18617 33987 ft 427 kts 340°
2026-04-21 10:23 40.09628 9.16609 33981 ft 427 kts 340°
2026-04-21 10:23 40.15362 9.14591 33989 ft 427 kts 340°
2026-04-21 10:24 40.21088 9.12567 33988 ft 426 kts 340°
2026-04-21 10:24 40.26811 9.10550 33983 ft 426 kts 340°
2026-04-21 10:25 40.32532 9.08532 33978 ft 426 kts 340°
2026-04-21 10:25 40.38248 9.06507 33975 ft 426 kts 340°
2026-04-21 10:26 40.43967 9.04478 33970 ft 426 kts 340°
2026-04-21 10:26 40.49690 9.02448 33962 ft 426 kts 340°
2026-04-21 10:27 40.55407 9.00414 33965 ft 426 kts 340°
2026-04-21 10:27 40.61127 8.98379 33980 ft 426 kts 340°
2026-04-21 10:28 40.66839 8.96335 33974 ft 425 kts 340°
2026-04-21 10:28 40.72544 8.94281 33979 ft 425 kts 340°
2026-04-21 10:29 40.78250 8.92239 33976 ft 425 kts 340°
2026-04-21 10:29 40.83950 8.90195 33989 ft 424 kts 340°
2026-04-21 10:30 40.89642 8.88147 33983 ft 424 kts 340°
2026-04-21 10:30 40.95329 8.86092 33975 ft 423 kts 340°
2026-04-21 10:31 41.01215 8.85088 33985 ft 433 kts 354°
2026-04-21 10:31 41.07233 8.85028 33979 ft 432 kts 354°
2026-04-21 10:32 41.13205 8.84958 33971 ft 432 kts 354°
2026-04-21 10:32 41.19211 8.84877 33967 ft 432 kts 354°
2026-04-21 10:33 41.25178 8.84484 33981 ft 425 kts 345°
2026-04-21 10:33 41.30794 8.82328 33972 ft 419 kts 337°
2026-04-21 10:34 41.36335 8.79900 33964 ft 419 kts 337°
2026-04-21 10:34 41.41867 8.77443 33969 ft 419 kts 337°
2026-04-21 10:35 41.47391 8.74965 33965 ft 419 kts 337°
2026-04-21 10:35 41.52918 8.72484 33957 ft 419 kts 337°
2026-04-21 10:36 41.58448 8.70008 33948 ft 419 kts 337°
2026-04-21 10:36 41.63983 8.67526 33954 ft 420 kts 337°
2026-04-21 10:37 41.69525 8.65038 33978 ft 420 kts 337°
2026-04-21 10:37 41.75069 8.62540 33975 ft 420 kts 337°
2026-04-21 10:38 41.80609 8.60036 33972 ft 420 kts 337°
2026-04-21 10:38 41.86147 8.57527 33971 ft 420 kts 337°
2026-04-21 10:39 41.91688 8.55015 33986 ft 420 kts 336°
2026-04-21 10:39 41.97225 8.52503 33979 ft 420 kts 336°
2026-04-21 10:40 42.02725 8.50011 33975 ft 420 kts 336°
2026-04-21 10:40 42.08257 8.47493 33969 ft 420 kts 336°
2026-04-21 10:41 42.13786 8.44962 33981 ft 420 kts 336°
2026-04-21 10:41 42.19315 8.42435 33972 ft 419 kts 336°
2026-04-21 10:42 42.24841 8.39903 33963 ft 419 kts 336°
2026-04-21 10:42 42.30362 8.37359 33957 ft 419 kts 336°
2026-04-21 10:43 42.35627 8.34156 33955 ft 413 kts 327°
2026-04-21 10:43 42.40656 8.30384 33951 ft 413 kts 327°
2026-04-21 10:44 42.45693 8.26622 33948 ft 414 kts 327°
2026-04-21 10:44 42.50729 8.22853 33945 ft 414 kts 327°
2026-04-21 10:45 42.55762 8.19069 33950 ft 414 kts 327°
2026-04-21 10:45 42.60793 8.15274 33948 ft 414 kts 327°
2026-04-21 10:46 42.65821 8.11474 33946 ft 414 kts 327°
2026-04-21 10:46 42.70851 8.07674 33946 ft 414 kts 327°
2026-04-21 10:47 42.75878 8.03855 33981 ft 414 kts 326°
2026-04-21 10:47 42.80905 8.00035 33967 ft 414 kts 326°
2026-04-21 10:48 42.85935 7.96212 33946 ft 414 kts 326°
2026-04-21 10:48 42.90968 7.92380 33944 ft 414 kts 326°
2026-04-21 10:49 42.95998 7.88531 33965 ft 414 kts 326°
2026-04-21 10:49 43.01029 7.84682 33956 ft 415 kts 326°
2026-04-21 10:50 43.06062 7.80826 33950 ft 415 kts 326°
2026-04-21 10:50 43.11092 7.76962 33947 ft 415 kts 326°
2026-04-21 10:51 43.16121 7.73086 33943 ft 415 kts 326°
2026-04-21 10:51 43.21144 7.69195 33957 ft 415 kts 326°
2026-04-21 10:52 43.26169 7.65293 33959 ft 415 kts 326°
2026-04-21 10:52 43.31192 7.61391 33953 ft 415 kts 326°
2026-04-21 10:53 43.36169 7.57524 33920 ft 415 kts 326°
2026-04-21 10:53 43.41239 7.53574 33948 ft 415 kts 326°
2026-04-21 10:54 43.46262 7.49650 33959 ft 415 kts 326°
2026-04-21 10:54 43.51281 7.45722 33942 ft 415 kts 326°
2026-04-21 10:55 43.56301 7.41787 33933 ft 415 kts 326°
2026-04-21 10:55 43.61314 7.37847 33954 ft 415 kts 326°
2026-04-21 10:56 43.66223 7.33690 33956 ft 413 kts 323°
2026-04-21 10:56 43.70978 7.29246 33952 ft 412 kts 322°
2026-04-21 10:57 43.75717 7.24778 33948 ft 413 kts 322°
2026-04-21 10:57 43.80492 7.20357 33955 ft 413 kts 322°
2026-04-21 10:58 43.85286 7.15968 33945 ft 413 kts 323°
2026-04-21 10:58 43.90080 7.11568 33931 ft 413 kts 322°
2026-04-21 10:59 43.94865 7.07150 33921 ft 413 kts 322°
2026-04-21 10:59 43.99659 7.02721 33913 ft 414 kts 322°
2026-04-21 11:00 44.04445 6.98281 33932 ft 414 kts 322°
2026-04-21 11:00 44.09226 6.93836 33929 ft 413 kts 322°
2026-04-21 11:01 44.13994 6.89395 33930 ft 412 kts 322°
2026-04-21 11:01 44.18754 6.84952 33931 ft 412 kts 322°
2026-04-21 11:02 44.25872 6.78275 33933 ft 411 kts 322°
2026-04-21 11:02 44.30619 6.73826 33931 ft 411 kts 322°
2026-04-21 11:03 44.35360 6.69367 33926 ft 411 kts 322°
2026-04-21 11:03 44.40097 6.64906 33922 ft 411 kts 322°
2026-04-21 11:04 44.44828 6.60426 33948 ft 410 kts 322°
2026-04-21 11:04 44.48757 6.56709 33946 ft 410 kts 322°
2026-04-21 11:05 44.53475 6.52247 33944 ft 409 kts 322°
2026-04-21 11:05 44.58196 6.47781 33938 ft 409 kts 322°
2026-04-21 11:06 44.62902 6.43300 33919 ft 409 kts 322°
2026-04-21 11:06 44.67614 6.38802 33926 ft 410 kts 322°
2026-04-21 11:07 44.72336 6.34295 33921 ft 410 kts 322°
2026-04-21 11:07 44.77063 6.29781 33925 ft 411 kts 322°
2026-04-21 11:08 44.81787 6.25258 33929 ft 411 kts 322°
2026-04-21 11:08 44.86504 6.20728 33949 ft 410 kts 322°
2026-04-21 11:09 44.91215 6.16192 33947 ft 410 kts 322°
2026-04-21 11:09 44.95928 6.11652 33941 ft 410 kts 322°
2026-04-21 11:10 45.00645 6.07095 33957 ft 411 kts 322°
2026-04-21 11:10 45.05334 6.02554 33984 ft 410 kts 322°
2026-04-21 11:11 45.10075 5.97963 33989 ft 410 kts 322°
2026-04-21 11:11 45.14782 5.93396 33986 ft 410 kts 322°
2026-04-21 11:12 45.19477 5.88820 33991 ft 409 kts 321°
2026-04-21 11:12 45.24166 5.84240 34013 ft 409 kts 321°
2026-04-21 11:13 45.28808 5.79693 33992 ft 408 kts 321°
2026-04-21 11:13 45.33484 5.75113 33986 ft 409 kts 322°
2026-04-21 11:14 45.38169 5.70519 33985 ft 409 kts 322°
2026-04-21 11:14 45.42857 5.65915 33984 ft 409 kts 321°
2026-04-21 11:15 45.47538 5.61294 34003 ft 410 kts 321°
2026-04-21 11:15 45.52218 5.56656 34007 ft 410 kts 321°
2026-04-21 11:16 45.56908 5.52027 34014 ft 410 kts 322°
2026-04-21 11:16 45.61727 5.47643 34012 ft 411 kts 324°
2026-04-21 11:17 45.66622 5.43390 34014 ft 412 kts 324°
2026-04-21 11:17 45.71504 5.39087 34018 ft 412 kts 324°
2026-04-21 11:18 45.76361 5.34727 34019 ft 412 kts 324°
2026-04-21 11:18 45.81247 5.30318 34019 ft 412 kts 324°
2026-04-21 11:19 45.86101 5.25934 34047 ft 413 kts 323°
2026-04-21 11:19 45.90960 5.21547 34048 ft 412 kts 323°
2026-04-21 11:20 45.95813 5.17151 34037 ft 412 kts 323°
2026-04-21 11:20 46.00661 5.12755 34020 ft 412 kts 324°
2026-04-21 11:21 46.05609 5.08544 34027 ft 417 kts 331°
2026-04-21 11:21 46.10922 5.05180 34044 ft 417 kts 332°
2026-04-21 11:22 46.16232 5.01794 34037 ft 417 kts 331°
2026-04-21 11:22 46.21499 4.98430 34034 ft 417 kts 331°
2026-04-21 11:23 46.26838 4.95018 34059 ft 417 kts 331°
2026-04-21 11:23 46.32137 4.91614 34054 ft 417 kts 331°
2026-04-21 11:24 46.37400 4.88233 34046 ft 417 kts 331°
2026-04-21 11:24 46.42696 4.84830 34041 ft 417 kts 331°
2026-04-21 11:25 46.47997 4.81412 34049 ft 417 kts 332°
2026-04-21 11:25 46.53298 4.77989 34048 ft 417 kts 332°
2026-04-21 11:26 46.58604 4.74559 34051 ft 417 kts 331°
2026-04-21 11:26 46.63904 4.71114 34057 ft 417 kts 331°
2026-04-21 11:27 46.69203 4.67656 34056 ft 417 kts 331°
2026-04-21 11:27 46.74503 4.64203 34063 ft 417 kts 331°
2026-04-21 11:28 46.79800 4.60749 34061 ft 417 kts 331°
2026-04-21 11:28 46.85097 4.57290 34060 ft 417 kts 331°
2026-04-21 11:29 46.90395 4.53842 34081 ft 417 kts 332°
2026-04-21 11:29 46.95693 4.50398 34074 ft 417 kts 332°
2026-04-21 11:30 47.00987 4.46950 34054 ft 416 kts 332°
2026-04-21 11:30 47.06271 4.43491 34058 ft 416 kts 331°
2026-04-21 11:31 47.11553 4.40021 34077 ft 416 kts 331°
2026-04-21 11:31 47.16835 4.36558 34075 ft 416 kts 331°
2026-04-21 11:32 47.22115 4.33084 34070 ft 415 kts 331°
2026-04-21 11:32 47.27384 4.29602 34070 ft 415 kts 331°
2026-04-21 11:33 47.32659 4.26119 34106 ft 415 kts 331°
2026-04-21 11:33 47.37918 4.22629 34100 ft 414 kts 331°
2026-04-21 11:34 47.43171 4.19139 34094 ft 414 kts 331°
2026-04-21 11:34 47.48415 4.15641 34088 ft 413 kts 331°
2026-04-21 11:35 47.53654 4.12143 34107 ft 413 kts 331°
2026-04-21 11:35 47.58882 4.08648 34110 ft 412 kts 332°
2026-04-21 11:36 47.64105 4.05166 34103 ft 411 kts 332°
2026-04-21 11:36 47.69315 4.01677 34104 ft 411 kts 331°
2026-04-21 11:37 47.74521 3.98184 34131 ft 410 kts 331°
2026-04-21 11:37 47.79715 3.94697 34125 ft 409 kts 331°
2026-04-21 11:38 47.84897 3.91203 34122 ft 408 kts 331°
2026-04-21 11:38 47.90068 3.87700 34126 ft 408 kts 331°
2026-04-21 11:39 47.95233 3.84194 34154 ft 408 kts 331°
2026-04-21 11:39 48.00392 3.80696 34153 ft 407 kts 331°
2026-04-21 11:40 48.05530 3.77190 34142 ft 405 kts 331°
2026-04-21 11:40 48.10653 3.73689 34148 ft 405 kts 331°
2026-04-21 11:41 48.15596 3.69771 34144 ft 399 kts 320°
2026-04-21 11:41 48.19543 3.64034 34161 ft 395 kts 311°
2026-04-21 11:42 48.23268 3.57983 34157 ft 394 kts 311°
2026-04-21 11:42 48.26990 3.51936 34164 ft 394 kts 311°
2026-04-21 11:43 48.30700 3.45885 34160 ft 394 kts 311°
2026-04-21 11:43 48.34407 3.39819 34132 ft 394 kts 311°
2026-04-21 11:44 48.38118 3.33727 34134 ft 396 kts 311°
2026-04-21 11:44 48.42402 3.28532 34168 ft 400 kts 328°
2026-04-21 11:45 48.47429 3.25247 35344 ft 374 kts 334°
2026-04-21 11:45 48.49784 3.23883 36487 ft 354 kts 335°
2026-04-21 11:45 48.52064 3.22577 37000 ft 348 kts 335°
2026-04-21 11:46 48.54324 3.21197 36785 ft 356 kts 333°
2026-04-21 11:46 48.56639 3.19631 35542 ft 375 kts 331°
2026-04-21 11:46 48.59072 3.17925 34716 ft 392 kts 331°
2026-04-21 11:46 48.61573 3.16197 34416 ft 398 kts 332°
2026-04-21 11:47 48.64106 3.14499 34232 ft 398 kts 332°
2026-04-21 11:47 48.65786 3.13399 34140 ft 397 kts 332°
2026-04-21 11:47 48.71699 3.09618 34172 ft 397 kts 333°
2026-04-21 11:48 48.76784 3.06363 34180 ft 397 kts 333°
2026-04-21 11:48 48.81873 3.03067 34179 ft 400 kts 333°
2026-04-21 11:49 48.86067 2.99992 34177 ft 398 kts 327°
2026-04-21 11:49 48.90877 2.95787 34187 ft 399 kts 327°
2026-04-21 11:50 48.95690 2.91591 34189 ft 399 kts 327°
2026-04-21 11:50 49.00468 2.87408 34187 ft 399 kts 327°
2026-04-21 11:51 49.05272 2.83187 34217 ft 399 kts 327°
2026-04-21 11:51 49.10101 2.78935 34219 ft 397 kts 327°
2026-04-21 11:52 49.14882 2.74726 34216 ft 396 kts 327°
2026-04-21 11:53 49.24691 2.66021 34179 ft 395 kts 326°
2026-04-21 11:53 49.29447 2.61795 34199 ft 396 kts 327°
2026-04-21 11:54 49.34212 2.57557 34203 ft 396 kts 327°
2026-04-21 11:54 49.38973 2.53310 34205 ft 396 kts 327°
2026-04-21 11:55 49.43733 2.49055 34210 ft 396 kts 327°
2026-04-21 11:55 49.48455 2.44813 34208 ft 396 kts 326°
2026-04-21 11:56 49.52984 2.40089 34245 ft 392 kts 317°
2026-04-21 11:56 49.57110 2.34608 34241 ft 391 kts 318°
2026-04-21 11:57 49.61237 2.29138 34245 ft 391 kts 318°
2026-04-21 11:57 49.65356 2.23664 34211 ft 391 kts 317°
2026-04-21 11:58 49.69471 2.18174 34209 ft 391 kts 317°
2026-04-21 11:58 49.73593 2.12654 34229 ft 392 kts 317°
2026-04-21 11:59 49.77713 2.07132 34233 ft 392 kts 318°
2026-04-21 11:59 49.81835 2.01604 34239 ft 392 kts 318°
2026-04-21 12:00 49.85951 1.96072 34249 ft 392 kts 317°
2026-04-21 12:00 49.90056 1.90531 34257 ft 391 kts 317°
2026-04-21 12:01 49.94156 1.84987 34250 ft 391 kts 317°
2026-04-21 12:01 49.98257 1.79433 34254 ft 391 kts 317°
2026-04-21 12:02 50.04388 1.71083 34243 ft 391 kts 317°
2026-04-21 12:03 50.08478 1.65508 34242 ft 391 kts 317°
2026-04-21 12:03 50.12582 1.59955 34246 ft 391 kts 318°
2026-04-21 12:04 50.16694 1.54395 34259 ft 391 kts 318°
2026-04-21 12:04 50.20800 1.48818 34276 ft 391 kts 318°
2026-04-21 12:05 50.24898 1.43216 34258 ft 391 kts 317°
2026-04-21 12:05 50.28989 1.37607 34228 ft 391 kts 317°
2026-04-21 12:06 50.33092 1.31994 34261 ft 392 kts 317°
2026-04-21 12:06 50.37191 1.26350 34260 ft 393 kts 317°
2026-04-21 12:07 50.41292 1.20690 34252 ft 393 kts 317°
2026-04-21 12:07 50.45392 1.15027 34274 ft 393 kts 317°
2026-04-21 12:08 50.49490 1.09345 34272 ft 393 kts 317°
2026-04-21 12:08 50.53580 1.03805 34272 ft 380 kts 320°
2026-04-21 12:09 50.57638 0.98806 34280 ft 366 kts 321°
2026-04-21 12:09 50.61662 0.93949 34291 ft 364 kts 321°
2026-04-21 12:10 50.65663 0.89033 34302 ft 365 kts 320°
2026-04-21 12:10 50.69645 0.84067 34285 ft 365 kts 320°
2026-04-21 12:11 50.73623 0.79090 34300 ft 365 kts 320°
2026-04-21 12:11 50.77600 0.74109 34290 ft 364 kts 320°
2026-04-21 12:12 50.81573 0.69131 34296 ft 364 kts 320°
2026-04-21 12:12 50.85541 0.64145 34313 ft 364 kts 320°
2026-04-21 12:13 50.89509 0.59152 34371 ft 364 kts 320°
2026-04-21 12:13 50.93473 0.54147 34420 ft 364 kts 320°
2026-04-21 12:14 50.97433 0.49140 34469 ft 364 kts 320°
2026-04-21 12:14 51.01386 0.44121 34505 ft 364 kts 320°
2026-04-21 12:15 51.05338 0.39093 34552 ft 364 kts 320°
2026-04-21 12:15 51.09294 0.34061 34594 ft 364 kts 320°
2026-04-21 12:16 51.12581 0.29859 34595 ft 365 kts 319°
2026-04-21 12:16 51.16534 0.24794 34581 ft 365 kts 319°
2026-04-21 12:17 51.20492 0.19724 34545 ft 365 kts 319°
2026-04-21 12:17 51.24445 0.14652 34499 ft 365 kts 319°
2026-04-21 12:18 51.28385 0.09559 34441 ft 365 kts 319°
2026-04-21 12:18 51.32057 0.04029 34393 ft 363 kts 307°
2026-04-21 12:19 51.34239 -0.03234 34288 ft 367 kts 288°
2026-04-21 12:19 51.35546 -0.11074 33923 ft 361 kts 288°
2026-04-21 12:19 51.36192 -0.14920 33597 ft 354 kts 288°
2026-04-21 12:20 51.36825 -0.18700 33179 ft 349 kts 288°
2026-04-21 12:20 51.37448 -0.22428 32758 ft 344 kts 288°
2026-04-21 12:20 51.38064 -0.26105 32347 ft 340 kts 288°
2026-04-21 12:20 51.38671 -0.29732 31946 ft 335 kts 288°
2026-04-21 12:21 51.39266 -0.33306 31548 ft 330 kts 288°
2026-04-21 12:21 51.39850 -0.36833 31166 ft 325 kts 288°
2026-04-21 12:21 51.40425 -0.40305 30790 ft 320 kts 288°
2026-04-21 12:21 51.40991 -0.43730 30425 ft 316 kts 288°
2026-04-21 12:22 51.41546 -0.47105 30027 ft 311 kts 288°
2026-04-21 12:22 51.42088 -0.50419 29673 ft 304 kts 288°
2026-04-21 12:22 51.42620 -0.53666 29337 ft 298 kts 288°
2026-04-21 12:22 51.43143 -0.56860 29014 ft 295 kts 288°
2026-04-21 12:23 51.43664 -0.60036 28692 ft 294 kts 288°
2026-04-21 12:23 51.44182 -0.63202 28367 ft 293 kts 288°
2026-04-21 12:23 51.44696 -0.66365 28039 ft 293 kts 288°
2026-04-21 12:23 51.45210 -0.69516 27708 ft 292 kts 288°
2026-04-21 12:24 51.45721 -0.72656 27378 ft 291 kts 288°
2026-04-21 12:24 51.46229 -0.75794 27043 ft 290 kts 288°
2026-04-21 12:24 51.46735 -0.78927 26693 ft 290 kts 288°
2026-04-21 12:24 51.47237 -0.82043 26351 ft 289 kts 288°
2026-04-21 12:25 51.47740 -0.85168 26005 ft 288 kts 288°
2026-04-21 12:25 51.48240 -0.88277 25649 ft 288 kts 288°
2026-04-21 12:25 51.48741 -0.91384 25295 ft 287 kts 288°
2026-04-21 12:25 51.49241 -0.94484 24930 ft 287 kts 288°
2026-04-21 12:26 51.49736 -0.97579 24552 ft 285 kts 288°
2026-04-21 12:26 51.50224 -1.00647 24205 ft 283 kts 288°
2026-04-21 12:26 51.50708 -1.03692 23835 ft 281 kts 288°
2026-04-21 12:26 51.51190 -1.06724 23433 ft 280 kts 288°
2026-04-21 12:27 51.51670 -1.09754 23075 ft 280 kts 288°
2026-04-21 12:27 51.52150 -1.12788 22721 ft 281 kts 288°
2026-04-21 12:27 51.52634 -1.15833 22359 ft 282 kts 288°
2026-04-21 12:27 51.53087 -1.18965 22015 ft 299 kts 285°
2026-04-21 12:28 51.53502 -1.22299 21657 ft 308 kts 284°
2026-04-21 12:28 51.53895 -1.25710 21297 ft 312 kts 283°
2026-04-21 12:28 51.54281 -1.29142 20928 ft 313 kts 283°
2026-04-21 12:28 51.54670 -1.32592 20563 ft 314 kts 283°
2026-04-21 12:29 51.55064 -1.36054 20194 ft 316 kts 283°
2026-04-21 12:29 51.55464 -1.39527 19821 ft 316 kts 283°
2026-04-21 12:29 51.55870 -1.43005 19449 ft 318 kts 283°
2026-04-21 12:29 51.56280 -1.46498 19077 ft 318 kts 283°
2026-04-21 12:30 51.56686 -1.49977 18709 ft 316 kts 284°
2026-04-21 12:30 51.57086 -1.53418 18310 ft 319 kts 283°
2026-04-21 12:30 51.57490 -1.56928 17927 ft 320 kts 283°
2026-04-21 12:30 51.57892 -1.60439 17556 ft 319 kts 283°
2026-04-21 12:31 51.58294 -1.63948 17184 ft 319 kts 282°
2026-04-21 12:31 51.58669 -1.67471 16806 ft 320 kts 280°
2026-04-21 12:31 51.58962 -1.71014 16428 ft 320 kts 279°
2026-04-21 12:31 51.59213 -1.74571 16051 ft 320 kts 277°
2026-04-21 12:32 51.59447 -1.78133 15672 ft 320 kts 277°
2026-04-21 12:32 51.59682 -1.81694 15293 ft 320 kts 277°
2026-04-21 12:32 51.59896 -1.85259 14916 ft 321 kts 272°
2026-04-21 12:32 51.59706 -1.88836 14529 ft 322 kts 257°
2026-04-21 12:33 51.58986 -1.92231 14150 ft 321 kts 242°
2026-04-21 12:33 51.57840 -1.95302 13743 ft 320 kts 236°
2026-04-21 12:33 51.56640 -1.98296 13435 ft 316 kts 236°
2026-04-21 12:33 51.55445 -2.01275 13002 ft 317 kts 236°
2026-04-21 12:34 51.54253 -2.04251 12615 ft 317 kts 236°
2026-04-21 12:34 51.53074 -2.07229 12278 ft 315 kts 239°
2026-04-21 12:34 51.52184 -2.10434 11924 ft 313 kts 250°
2026-04-21 12:34 51.51460 -2.13708 11581 ft 311 kts 250°
2026-04-21 12:35 51.50723 -2.16993 11173 ft 312 kts 249°
2026-04-21 12:35 51.49980 -2.20270 10767 ft 313 kts 249°
2026-04-21 12:35 51.49234 -2.23542 10440 ft 311 kts 249°
2026-04-21 12:35 51.48492 -2.26792 10069 ft 309 kts 249°
2026-04-21 12:36 51.47753 -2.30025 9686 ft 307 kts 250°
2026-04-21 12:36 51.47384 -2.33365 9361 ft 303 kts 268°
2026-04-21 12:36 51.47355 -2.36741 8946 ft 303 kts 270°
2026-04-21 12:36 51.47364 -2.40125 8518 ft 303 kts 270°
2026-04-21 12:37 51.47380 -2.43488 8184 ft 300 kts 270°
2026-04-21 12:37 51.47400 -2.46825 7791 ft 299 kts 270°
2026-04-21 12:37 51.47421 -2.50141 7469 ft 295 kts 270°
2026-04-21 12:37 51.47440 -2.53426 7072 ft 295 kts 270°
2026-04-21 12:38 51.47465 -2.56713 6710 ft 293 kts 270°
2026-04-21 12:38 51.47489 -2.59907 6572 ft 281 kts 270°
2026-04-21 12:38 51.47510 -2.62948 6307 ft 267 kts 270°
2026-04-21 12:38 51.47531 -2.65917 6061 ft 264 kts 270°
2026-04-21 12:39 51.47552 -2.68847 5839 ft 261 kts 270°
2026-04-21 12:39 51.47574 -2.71685 5695 ft 247 kts 270°
2026-04-21 12:39 51.47595 -2.74391 5415 ft 241 kts 270°
2026-04-21 12:39 51.47613 -2.77063 5201 ft 239 kts 270°
2026-04-21 12:40 51.47631 -2.79713 4996 ft 237 kts 270°
2026-04-21 12:40 51.47651 -2.82341 4805 ft 235 kts 270°
2026-04-21 12:40 51.47667 -2.84969 4546 ft 236 kts 270°
2026-04-21 12:40 51.47674 -2.87592 4308 ft 235 kts 270°
2026-04-21 12:41 51.47672 -2.90201 4084 ft 233 kts 270°
2026-04-21 12:41 51.47657 -2.92792 3895 ft 230 kts 270°
2026-04-21 12:41 51.47449 -2.95283 3696 ft 224 kts 248°
2026-04-21 12:41 51.46636 -2.97317 3594 ft 211 kts 218°
2026-04-21 12:42 51.45444 -2.98500 3328 ft 197 kts 192°
2026-04-21 12:42 51.44126 -2.98754 3011 ft 187 kts 167°
2026-04-21 12:42 51.42913 -2.98208 2724 ft 179 kts 150°
2026-04-21 12:42 51.41762 -2.97446 2540 ft 179 kts 150°
2026-04-21 12:43 51.40618 -2.96701 2502 ft 172 kts 150°
2026-04-21 12:43 51.39539 -2.96009 2500 ft 164 kts 149°
2026-04-21 12:43 51.38550 -2.95208 2505 ft 155 kts 134°
2026-04-21 12:43 51.37855 -2.93972 2506 ft 147 kts 114°
2026-04-21 12:44 51.37511 -2.92474 2511 ft 141 kts 95°
2026-04-21 12:44 51.37504 -2.91006 2545 ft 129 kts 84°
2026-04-21 12:44 51.37562 -2.89581 2514 ft 127 kts 84°
2026-04-21 12:44 51.37619 -2.88174 2447 ft 127 kts 84°
2026-04-21 12:45 51.37676 -2.86767 2314 ft 126 kts 84°
2026-04-21 12:45 51.37732 -2.85370 2163 ft 126 kts 84°
2026-04-21 12:45 51.37788 -2.83980 2002 ft 124 kts 84°
2026-04-21 12:45 51.37843 -2.82589 1838 ft 125 kts 84°
2026-04-21 12:46 51.37900 -2.81194 1638 ft 124 kts 84°
2026-04-21 12:46 51.37957 -2.79809 1451 ft 125 kts 84°
2026-04-21 12:46 51.38017 -2.78421 1288 ft 124 kts 84°
2026-04-21 12:46 51.38069 -2.77036 1130 ft 125 kts 85°
2026-04-21 12:47 51.38121 -2.75654 960 ft 124 kts 83°
2026-04-21 12:47 51.38180 -2.74254 778 ft 127 kts 84°
2026-04-21 12:47 51.38231 -2.72871 637 ft 122 kts 84°
2026-04-21 12:47 51.38273 -2.71810 611 ft 56 kts 86°
2026-04-21 12:48 51.38291 -2.71316 618 ft 40 kts 86°
2026-04-21 12:48 51.38306 -2.70937 606 ft 22 kts 86°
2026-04-21 12:48 51.38326 -2.70782 619 ft 10 kts 46°
2026-04-21 12:48 51.38383 -2.70738 615 ft 9 kts 20°
2026-04-21 12:49 51.38431 -2.70711 613 ft 6 kts 18°
2026-04-21 12:49 51.38471 -2.70715 624 ft 6 kts 311°
2026-04-21 12:49 51.38473 -2.70771 615 ft 4 kts 265°
2026-04-21 12:49 51.38471 -2.70813 612 ft 4 kts 264°
2026-04-21 12:50 51.38469 -2.70844 613 ft 2 kts 266°
2026-04-21 12:50 51.38467 -2.70944 625 ft 14 kts 266°
2026-04-21 12:50 51.38460 -2.71074 615 ft 11 kts 265°
2026-04-21 12:50 51.38456 -2.71184 616 ft 8 kts 267°
2026-04-21 12:51 51.38453 -2.71279 623 ft 11 kts 265°
2026-04-21 12:51 51.38448 -2.71391 614 ft 8 kts 266°
2026-04-21 12:51 51.38453 -2.71460 612 ft 5 kts 312°
2026-04-21 12:51 51.38483 -2.71474 623 ft 4 kts 351°
2026-04-21 12:52 51.38505 -2.71477 617 ft 3 kts 356°
2026-04-21 12:52 51.38528 -2.71479 612 ft 3 kts 356°
2026-04-21 12:52 51.38537 -2.71480 612 ft 0 kts 356°